PRMGX SJSH-SWON

Flight info

Callsign PRMGX
Flight time N/A
Altitude 5000
Route SWON
Aircraft C172/L-SFG/C

Departure

Time 2026-04-12 18:23
Airport Fly Ville Airport (SJSH)

Arrival

Time N/A
Airport Clube de Aviação Céu Azul Airport (SWON)
Time Latitude Longitude Altitude Speed Heading
2026-04-12 18:16 -27.37343 -48.61441 57 ft 0 kts 116°
2026-04-12 18:19 -27.37344 -48.61435 57 ft 5 kts 84°
2026-04-12 18:19 -27.37328 -48.61463 57 ft 4 kts 274°
2026-04-12 18:19 -27.37337 -48.61530 55 ft 13 kts 226°
2026-04-12 18:20 -27.37353 -48.61595 55 ft 8 kts 211°
2026-04-12 18:20 -27.37416 -48.61630 55 ft 11 kts 206°
2026-04-12 18:20 -27.37486 -48.61671 57 ft 11 kts 204°
2026-04-12 18:20 -27.37564 -48.61716 58 ft 18 kts 210°
2026-04-12 18:21 -27.37670 -48.61778 59 ft 10 kts 206°
2026-04-12 18:21 -27.37684 -48.61786 59 ft 0 kts 207°
2026-04-12 18:21 -27.37696 -48.61792 59 ft 4 kts 194°
2026-04-12 18:22 -27.37717 -48.61758 59 ft 11 kts 85°
2026-04-12 18:22 -27.37545 -48.61650 59 ft 54 kts 26°
2026-04-12 18:22 -27.37127 -48.61393 156 ft 73 kts 32°
2026-04-12 18:22 -27.36746 -48.61062 396 ft 67 kts 35°
2026-04-12 18:23 -27.36363 -48.60730 556 ft 73 kts 21°
2026-04-12 18:23 -27.35845 -48.60599 703 ft 77 kts
2026-04-12 18:23 -27.35325 -48.60456 871 ft 78 kts 15°
2026-04-12 18:23 -27.34788 -48.60244 1010 ft 81 kts 17°
2026-04-12 18:24 -27.34273 -48.60050 1193 ft 79 kts 19°
2026-04-12 18:24 -27.33684 -48.59889 1250 ft 90 kts
2026-04-12 18:24 -27.33081 -48.59852 1455 ft 81 kts
2026-04-12 18:24 -27.32528 -48.59785 1597 ft 81 kts
2026-04-12 18:25 -27.31973 -48.59733 1769 ft 77 kts
2026-04-12 18:25 -27.31430 -48.59715 1913 ft 77 kts
2026-04-12 18:25 -27.30924 -48.59584 2087 ft 74 kts 22°
2026-04-12 18:25 -27.30455 -48.59344 2247 ft 76 kts 24°
2026-04-12 18:26 -27.29991 -48.59097 2428 ft 74 kts 24°
2026-04-12 18:26 -27.29543 -48.58838 2602 ft 73 kts 25°
2026-04-12 18:26 -27.29112 -48.58558 2778 ft 71 kts 27°
2026-04-12 18:26 -27.28678 -48.58289 2950 ft 70 kts 26°
2026-04-12 18:27 -27.28272 -48.58021 3145 ft 66 kts 25°
2026-04-12 18:27 -27.28029 -48.57881 3233 ft 68 kts 22°
2026-04-12 18:27 -27.27775 -48.57742 3307 ft 71 kts 24°
2026-04-12 18:28 -27.27323 -48.57500 3446 ft 73 kts 22°
2026-04-12 18:28 -27.26852 -48.57271 3592 ft 74 kts 21°
2026-04-12 18:28 -27.26364 -48.57053 3737 ft 76 kts 19°
2026-04-12 18:28 -27.25856 -48.56849 3883 ft 78 kts 17°
2026-04-12 18:29 -27.25339 -48.56657 4028 ft 79 kts 16°
2026-04-12 18:29 -27.24815 -48.56477 4170 ft 79 kts 15°
2026-04-12 18:29 -27.24284 -48.56309 4314 ft 80 kts 14°
2026-04-12 18:29 -27.23752 -48.56143 4459 ft 79 kts 15°
2026-04-12 18:30 -27.23220 -48.55979 4597 ft 79 kts 14°
2026-04-12 18:30 -27.22689 -48.55818 4743 ft 79 kts 15°
2026-04-12 18:30 -27.22160 -48.55656 4886 ft 78 kts 14°
2026-04-12 18:30 -27.21631 -48.55489 4992 ft 82 kts 14°
2026-04-12 18:31 -27.21061 -48.55308 5014 ft 88 kts 14°
2026-04-12 18:31 -27.20451 -48.55132 5017 ft 93 kts 13°
2026-04-12 18:31 -27.19804 -48.54988 5019 ft 95 kts 11°
2026-04-12 18:31 -27.19150 -48.54845 5015 ft 96 kts 11°
2026-04-12 18:32 -27.18496 -48.54704 5013 ft 96 kts 11°
2026-04-12 18:32 -27.17949 -48.54586 5014 ft 96 kts 11°
2026-04-12 18:32 -27.17714 -48.54534 5015 ft 96 kts 11°
2026-04-12 18:33 -27.17713 -48.54534 5015 ft 96 kts 11°
2026-04-12 18:33 -27.17424 -48.54472 5012 ft 95 kts 11°
2026-04-12 18:33 -27.16766 -48.54358 5012 ft 96 kts 359°
2026-04-12 18:33 -27.16103 -48.54435 5016 ft 96 kts 355°
2026-04-12 18:34 -27.15435 -48.54519 5016 ft 96 kts 356°
2026-04-12 18:34 -27.14771 -48.54605 5017 ft 96 kts 355°
2026-04-12 18:34 -27.14099 -48.54682 4998 ft 98 kts 356°
2026-04-12 18:34 -27.13414 -48.54754 4979 ft 99 kts 356°
2026-04-12 18:35 -27.12723 -48.54816 4954 ft 99 kts 355°
2026-04-12 18:35 -27.12033 -48.54870 4931 ft 100 kts 356°
2026-04-12 18:35 -27.11344 -48.54917 4926 ft 98 kts 356°
2026-04-12 18:35 -27.10660 -48.54961 4925 ft 97 kts 356°
2026-04-12 18:36 -27.10214 -48.54986 4923 ft 96 kts 356°
2026-04-12 18:36 -27.09991 -48.55000 4925 ft 96 kts 356°
2026-04-12 18:37 -27.07323 -48.55148 4931 ft 96 kts 355°
2026-04-12 18:37 -27.06655 -48.55188 4927 ft 96 kts 356°
2026-04-12 18:37 -27.05978 -48.55224 4928 ft 97 kts 356°
2026-04-12 18:37 -27.05304 -48.55258 4932 ft 97 kts 355°
2026-04-12 18:38 -27.04627 -48.55294 4933 ft 97 kts 356°
2026-04-12 18:38 -27.03943 -48.55328 4936 ft 98 kts 356°
2026-04-12 18:38 -27.03260 -48.55359 4938 ft 98 kts 355°
2026-04-12 18:38 -27.02578 -48.55397 4931 ft 98 kts 356°
2026-04-12 18:39 -27.01951 -48.55435 4934 ft 97 kts 356°
2026-04-12 18:39 -27.01458 -48.55465 4931 ft 97 kts 355°
2026-04-12 18:39 -27.00962 -48.55495 4935 ft 96 kts 356°
2026-04-12 18:39 -27.00349 -48.55538 4933 ft 96 kts 356°
2026-04-12 18:40 -26.99373 -48.55604 4937 ft 96 kts 356°
2026-04-12 18:40 -26.98700 -48.55658 4931 ft 95 kts 351°
2026-04-12 18:40 -26.98055 -48.55819 4929 ft 95 kts 347°
2026-04-12 18:40 -26.97411 -48.55983 4932 ft 95 kts 347°
2026-04-12 18:41 -26.96760 -48.56143 4935 ft 95 kts 347°
2026-04-12 18:41 -26.96115 -48.56298 4938 ft 95 kts 346°
2026-04-12 18:41 -26.95465 -48.56451 4932 ft 95 kts 347°
2026-04-12 18:41 -26.94817 -48.56602 4935 ft 95 kts 347°
2026-04-12 18:42 -26.94167 -48.56759 4936 ft 96 kts 347°
2026-04-12 18:42 -26.93516 -48.56920 4938 ft 96 kts 347°
2026-04-12 18:42 -26.92864 -48.57085 4932 ft 96 kts 347°
2026-04-12 18:43 -26.90907 -48.57594 4936 ft 96 kts 347°
2026-04-12 18:43 -26.90254 -48.57769 4939 ft 96 kts 348°
2026-04-12 18:43 -26.89601 -48.57940 4938 ft 97 kts 347°
2026-04-12 18:44 -26.88944 -48.58107 4941 ft 97 kts 347°
2026-04-12 18:44 -26.88285 -48.58271 4944 ft 97 kts 347°
2026-04-12 18:44 -26.87621 -48.58436 4938 ft 97 kts 347°
2026-04-12 18:44 -26.86964 -48.58591 4940 ft 97 kts 348°
2026-04-12 18:45 -26.86302 -48.58745 4945 ft 98 kts 348°
2026-04-12 18:45 -26.85635 -48.58896 4940 ft 98 kts 347°
2026-04-12 18:45 -26.84968 -48.59046 4942 ft 97 kts 347°
2026-04-12 18:45 -26.84304 -48.59199 4944 ft 97 kts 348°
2026-04-12 18:46 -26.83636 -48.59356 4940 ft 98 kts 348°
2026-04-12 18:46 -26.82966 -48.59522 4943 ft 98 kts 348°
2026-04-12 18:46 -26.82303 -48.59695 4945 ft 97 kts 348°
2026-04-12 18:46 -26.81644 -48.59870 4941 ft 97 kts 347°
2026-04-12 18:47 -26.80984 -48.60045 4941 ft 97 kts 348°
2026-04-12 18:47 -26.80327 -48.60224 4945 ft 98 kts 347°
2026-04-12 18:47 -26.79663 -48.60398 4947 ft 98 kts 348°
2026-04-12 18:47 -26.78996 -48.60564 4945 ft 98 kts 348°
2026-04-12 18:48 -26.78327 -48.60724 4946 ft 97 kts 348°
2026-04-12 18:48 -26.77663 -48.60878 4946 ft 98 kts 348°
2026-04-12 18:48 -26.76997 -48.61029 4944 ft 98 kts 348°
2026-04-12 18:48 -26.76331 -48.61183 4948 ft 98 kts 348°
2026-04-12 18:49 -26.75662 -48.61331 4948 ft 98 kts 348°
2026-04-12 18:49 -26.74992 -48.61482 4945 ft 98 kts 347°
2026-04-12 18:49 -26.74325 -48.61634 4949 ft 97 kts 348°
2026-04-12 18:49 -26.73655 -48.61795 4947 ft 98 kts 348°
2026-04-12 18:50 -26.72987 -48.61967 4946 ft 99 kts 348°
2026-04-12 18:50 -26.72318 -48.62147 4951 ft 99 kts 348°
2026-04-12 18:50 -26.71652 -48.62332 4946 ft 99 kts 347°
2026-04-12 18:50 -26.70983 -48.62507 4947 ft 98 kts 348°
2026-04-12 18:51 -26.70318 -48.62674 4945 ft 97 kts 347°
2026-04-12 18:51 -26.69653 -48.62837 4945 ft 98 kts 348°
2026-04-12 18:51 -26.68984 -48.62995 4940 ft 98 kts 348°
2026-04-12 18:51 -26.68321 -48.63153 4942 ft 97 kts 348°
2026-04-12 18:52 -26.67655 -48.63305 4943 ft 97 kts 348°
2026-04-12 18:52 -26.66987 -48.63450 4948 ft 98 kts 348°
2026-04-12 18:52 -26.66318 -48.63598 4942 ft 98 kts 348°
2026-04-12 18:52 -26.65651 -48.63753 4941 ft 98 kts 348°
2026-04-12 18:53 -26.64986 -48.63906 4946 ft 97 kts 348°
2026-04-12 18:53 -26.64320 -48.64066 4944 ft 97 kts 348°
2026-04-12 18:53 -26.63661 -48.64228 4942 ft 97 kts 348°
2026-04-12 18:53 -26.63002 -48.64393 4942 ft 98 kts 349°
2026-04-12 18:54 -26.62341 -48.64568 4942 ft 98 kts 348°
2026-04-12 18:54 -26.61676 -48.64749 4941 ft 99 kts 348°
2026-04-12 18:54 -26.61006 -48.64927 4946 ft 99 kts 348°
2026-04-12 18:54 -26.60334 -48.65099 4943 ft 99 kts 348°
2026-04-12 18:55 -26.59655 -48.65258 4944 ft 99 kts 348°
2026-04-12 18:55 -26.58976 -48.65407 4947 ft 100 kts 348°
2026-04-12 18:55 -26.58295 -48.65551 4947 ft 100 kts 348°
2026-04-12 18:55 -26.57613 -48.65694 4942 ft 100 kts 348°
2026-04-12 18:56 -26.56929 -48.65839 4945 ft 99 kts 348°
2026-04-12 18:56 -26.56251 -48.65984 4942 ft 99 kts 348°
2026-04-12 18:56 -26.55573 -48.66127 4942 ft 99 kts 348°
2026-04-12 18:56 -26.54892 -48.66276 4941 ft 99 kts 348°
2026-04-12 18:57 -26.54215 -48.66426 4944 ft 99 kts 348°
2026-04-12 18:57 -26.53535 -48.66582 4942 ft 100 kts 348°
2026-04-12 18:57 -26.52852 -48.66740 4944 ft 100 kts 348°
2026-04-12 18:57 -26.52169 -48.66902 4942 ft 100 kts 349°
2026-04-12 18:58 -26.51484 -48.67067 4941 ft 101 kts 348°
2026-04-12 18:58 -26.50798 -48.67234 4940 ft 101 kts 348°
2026-04-12 18:58 -26.50107 -48.67401 4940 ft 101 kts 348°
2026-04-12 18:58 -26.49419 -48.67561 4939 ft 101 kts 348°
2026-04-12 18:59 -26.48731 -48.67715 4943 ft 101 kts 348°
2026-04-12 18:59 -26.48041 -48.67859 4943 ft 101 kts 348°
2026-04-12 18:59 -26.47344 -48.68006 4940 ft 102 kts 348°
2026-04-12 18:59 -26.46650 -48.68150 4941 ft 101 kts 348°
2026-04-12 19:00 -26.45958 -48.68294 4940 ft 101 kts 348°
2026-04-12 19:00 -26.45265 -48.68436 4939 ft 100 kts 349°
2026-04-12 19:00 -26.44578 -48.68590 4938 ft 101 kts 349°
2026-04-12 19:00 -26.43894 -48.68757 4938 ft 100 kts 349°
2026-04-12 19:01 -26.43214 -48.68940 4936 ft 101 kts 348°
2026-04-12 19:01 -26.42534 -48.69131 4936 ft 101 kts 349°
2026-04-12 19:01 -26.41847 -48.69318 4939 ft 101 kts 348°
2026-04-12 19:01 -26.41160 -48.69493 4936 ft 101 kts 349°
2026-04-12 19:02 -26.40463 -48.69656 4935 ft 101 kts 349°
2026-04-12 19:02 -26.39774 -48.69804 4935 ft 101 kts 349°
2026-04-12 19:02 -26.39086 -48.69950 4935 ft 101 kts 349°
2026-04-12 19:02 -26.38398 -48.70096 4934 ft 101 kts 349°
2026-04-12 19:03 -26.37708 -48.70244 4934 ft 101 kts 349°
2026-04-12 19:03 -26.37020 -48.70388 4934 ft 100 kts 349°
2026-04-12 19:03 -26.36334 -48.70533 4934 ft 100 kts 349°
2026-04-12 19:03 -26.35641 -48.70679 4937 ft 101 kts 349°
2026-04-12 19:04 -26.34946 -48.70826 4940 ft 102 kts 349°
2026-04-12 19:04 -26.34247 -48.70979 4941 ft 103 kts 349°
2026-04-12 19:04 -26.33542 -48.71138 4942 ft 103 kts 349°
2026-04-12 19:04 -26.32840 -48.71300 4939 ft 103 kts 349°
2026-04-12 19:05 -26.32139 -48.71466 4942 ft 103 kts 349°
2026-04-12 19:05 -26.31440 -48.71634 4938 ft 103 kts 349°
2026-04-12 19:05 -26.30734 -48.71799 4939 ft 103 kts 349°
2026-04-12 19:05 -26.30031 -48.71958 4941 ft 103 kts 349°
2026-04-12 19:06 -26.29326 -48.72111 4940 ft 104 kts 349°
2026-04-12 19:06 -26.28615 -48.72258 4941 ft 104 kts 349°
2026-04-12 19:06 -26.27902 -48.72404 4938 ft 105 kts 349°
2026-04-12 19:06 -26.27186 -48.72555 4937 ft 105 kts 349°
2026-04-12 19:07 -26.26470 -48.72710 4938 ft 105 kts 349°
2026-04-12 19:07 -26.25749 -48.72872 4938 ft 105 kts 349°
2026-04-12 19:07 -26.25032 -48.73041 4937 ft 106 kts 349°
2026-04-12 19:07 -26.24314 -48.73225 4940 ft 106 kts 349°
2026-04-12 19:08 -26.23596 -48.73417 4942 ft 106 kts 348°
2026-04-12 19:08 -26.22875 -48.73618 4941 ft 107 kts 348°
2026-04-12 19:08 -26.22152 -48.73812 4942 ft 107 kts 349°
2026-04-12 19:08 -26.21431 -48.73996 4943 ft 106 kts 349°
2026-04-12 19:09 -26.20703 -48.74174 4944 ft 106 kts 349°
2026-04-12 19:09 -26.19977 -48.74334 4947 ft 106 kts 349°
2026-04-12 19:09 -26.19255 -48.74498 4945 ft 106 kts 349°
2026-04-12 19:09 -26.18532 -48.74661 4946 ft 106 kts 349°
2026-04-12 19:10 -26.17808 -48.74834 4947 ft 106 kts 348°
2026-04-12 19:10 -26.17085 -48.75008 4947 ft 107 kts 349°
2026-04-12 19:10 -26.16358 -48.75177 4948 ft 107 kts 349°
2026-04-12 19:10 -26.15622 -48.75342 4949 ft 107 kts 349°
2026-04-12 19:11 -26.14889 -48.75512 4950 ft 107 kts 349°
2026-04-12 19:11 -26.14153 -48.75677 4953 ft 108 kts 349°
2026-04-12 19:11 -26.13416 -48.75842 4956 ft 108 kts 349°
2026-04-12 19:11 -26.12678 -48.76013 4960 ft 108 kts 349°
2026-04-12 19:12 -26.11940 -48.76174 4961 ft 108 kts 349°
2026-04-12 19:12 -26.11203 -48.76344 4963 ft 108 kts 349°
2026-04-12 19:12 -26.10462 -48.76516 4964 ft 108 kts 349°
2026-04-12 19:12 -26.09729 -48.76687 4964 ft 108 kts 349°
2026-04-12 19:13 -26.08995 -48.76854 4964 ft 108 kts 349°
2026-04-12 19:13 -26.08261 -48.77021 4961 ft 108 kts 348°
2026-04-12 19:13 -26.07527 -48.77188 4964 ft 108 kts 349°
2026-04-12 19:13 -26.06793 -48.77354 4968 ft 108 kts 350°
2026-04-12 19:14 -26.06059 -48.77529 4969 ft 108 kts 349°
2026-04-12 19:14 -26.05318 -48.77700 4970 ft 108 kts 349°
2026-04-12 19:14 -26.04580 -48.77877 4972 ft 109 kts 350°
2026-04-12 19:14 -26.03843 -48.78056 4971 ft 109 kts 350°
2026-04-12 19:15 -26.03106 -48.78242 4972 ft 108 kts 350°
2026-04-12 19:15 -26.02371 -48.78433 4974 ft 109 kts 349°
2026-04-12 19:15 -26.01635 -48.78627 4977 ft 109 kts 350°
2026-04-12 19:15 -26.00895 -48.78807 4976 ft 109 kts 350°
2026-04-12 19:16 -26.00150 -48.78991 4980 ft 109 kts 349°
2026-04-12 19:16 -25.99409 -48.79162 4977 ft 109 kts 349°
2026-04-12 19:16 -25.98667 -48.79328 4979 ft 109 kts 351°
2026-04-12 19:16 -25.97927 -48.79495 4980 ft 109 kts 351°
2026-04-12 19:17 -25.97184 -48.79659 4981 ft 108 kts 350°
2026-04-12 19:17 -25.96443 -48.79817 4979 ft 108 kts 350°
2026-04-12 19:17 -25.95700 -48.79983 4978 ft 109 kts 350°
2026-04-12 19:17 -25.94955 -48.80149 4982 ft 108 kts 350°
2026-04-12 19:18 -25.94213 -48.80311 4985 ft 109 kts 350°
2026-04-12 19:18 -25.93469 -48.80472 4987 ft 109 kts 349°
2026-04-12 19:18 -25.92723 -48.80635 4989 ft 109 kts 350°
2026-04-12 19:18 -25.91977 -48.80793 4988 ft 109 kts 350°
2026-04-12 19:19 -25.91231 -48.80955 4989 ft 109 kts 349°
2026-04-12 19:19 -25.90484 -48.81113 4988 ft 109 kts 350°
2026-04-12 19:19 -25.89730 -48.81280 4986 ft 109 kts 351°
2026-04-12 19:19 -25.88984 -48.81447 4986 ft 109 kts 351°
2026-04-12 19:20 -25.88241 -48.81621 4985 ft 109 kts 350°
2026-04-12 19:20 -25.87499 -48.81785 4981 ft 109 kts 349°
2026-04-12 19:20 -25.86755 -48.81950 4982 ft 108 kts 349°
2026-04-12 19:20 -25.86014 -48.82110 4980 ft 108 kts 350°
2026-04-12 19:21 -25.85274 -48.82267 4977 ft 108 kts 350°
2026-04-12 19:21 -25.84532 -48.82425 4976 ft 108 kts 351°
2026-04-12 19:21 -25.83796 -48.82586 4980 ft 108 kts 350°
2026-04-12 19:21 -25.83060 -48.82758 4985 ft 108 kts 351°
2026-04-12 19:22 -25.82322 -48.82939 4981 ft 109 kts 350°
2026-04-12 19:22 -25.81588 -48.83129 4979 ft 108 kts 349°
2026-04-12 19:22 -25.80856 -48.83315 4981 ft 108 kts 350°
2026-04-12 19:22 -25.80125 -48.83489 4979 ft 107 kts 350°
2026-04-12 19:23 -25.79391 -48.83664 4980 ft 107 kts 350°
2026-04-12 19:23 -25.78663 -48.83820 4982 ft 106 kts 350°
2026-04-12 19:23 -25.77935 -48.83974 4982 ft 106 kts 351°
2026-04-12 19:23 -25.77207 -48.84127 4983 ft 107 kts 350°
2026-04-12 19:24 -25.76478 -48.84284 4982 ft 106 kts 351°
2026-04-12 19:24 -25.75751 -48.84439 4989 ft 107 kts 350°
2026-04-12 19:24 -25.75016 -48.84602 4991 ft 108 kts 350°
2026-04-12 19:24 -25.74272 -48.84761 4989 ft 108 kts 350°
2026-04-12 19:25 -25.73530 -48.84920 4988 ft 109 kts 351°
2026-04-12 19:25 -25.72781 -48.85073 4984 ft 110 kts 350°
2026-04-12 19:25 -25.72029 -48.85227 4986 ft 110 kts 351°
2026-04-12 19:25 -25.71276 -48.85383 4987 ft 110 kts 351°
2026-04-12 19:26 -25.70523 -48.85545 4987 ft 110 kts 350°
2026-04-12 19:26 -25.69773 -48.85703 4991 ft 110 kts 351°
2026-04-12 19:26 -25.69019 -48.85863 4993 ft 109 kts 351°
2026-04-12 19:26 -25.68272 -48.86020 4998 ft 109 kts 351°
2026-04-12 19:27 -25.67528 -48.86174 4999 ft 108 kts 351°
2026-04-12 19:27 -25.66788 -48.86333 5001 ft 108 kts 351°
2026-04-12 19:27 -25.66044 -48.86492 5003 ft 109 kts 350°
2026-04-12 19:27 -25.65298 -48.86648 5006 ft 109 kts 350°
2026-04-12 19:28 -25.64546 -48.86796 5006 ft 110 kts 350°
2026-04-12 19:28 -25.63789 -48.86949 5004 ft 109 kts 350°
2026-04-12 19:28 -25.63042 -48.87105 4997 ft 109 kts 350°
2026-04-12 19:28 -25.62298 -48.87259 5003 ft 109 kts 351°
2026-04-12 19:29 -25.61550 -48.87414 5004 ft 108 kts 351°
2026-04-12 19:29 -25.60803 -48.87564 5006 ft 109 kts 351°
2026-04-12 19:29 -25.60059 -48.87714 4999 ft 108 kts 351°
2026-04-12 19:29 -25.59320 -48.87860 5003 ft 108 kts 351°
2026-04-12 19:30 -25.58584 -48.88006 5004 ft 106 kts 352°
2026-04-12 19:30 -25.57858 -48.88149 5002 ft 105 kts 350°
2026-04-12 19:30 -25.57139 -48.88301 5001 ft 105 kts 351°
2026-04-12 19:30 -25.56417 -48.88442 5006 ft 105 kts 351°
2026-04-12 19:31 -25.55700 -48.88585 5006 ft 105 kts 352°
2026-04-12 19:31 -25.54982 -48.88732 5006 ft 105 kts 350°
2026-04-12 19:31 -25.54262 -48.88878 5011 ft 105 kts 350°
2026-04-12 19:31 -25.53540 -48.89031 5009 ft 106 kts 351°
2026-04-12 19:32 -25.52819 -48.89176 5011 ft 105 kts 351°
2026-04-12 19:32 -25.52096 -48.89318 5017 ft 105 kts 351°
2026-04-12 19:32 -25.51368 -48.89460 5019 ft 106 kts 351°
2026-04-12 19:32 -25.50646 -48.89604 5018 ft 105 kts 351°
2026-04-12 19:33 -25.49928 -48.89756 5019 ft 105 kts 351°
2026-04-12 19:33 -25.49208 -48.89916 5020 ft 105 kts 350°
2026-04-12 19:33 -25.48487 -48.90073 5016 ft 105 kts 351°
2026-04-12 19:33 -25.47768 -48.90223 5018 ft 105 kts 351°
2026-04-12 19:34 -25.47052 -48.90376 5021 ft 105 kts 351°
2026-04-12 19:34 -25.46327 -48.90522 5034 ft 105 kts 351°
2026-04-12 19:34 -25.45606 -48.90668 5039 ft 106 kts 351°
2026-04-12 19:34 -25.44875 -48.90821 5034 ft 107 kts 351°
2026-04-12 19:35 -25.44146 -48.90980 5028 ft 107 kts 351°
2026-04-12 19:35 -25.43420 -48.91134 5030 ft 106 kts 352°
2026-04-12 19:35 -25.42694 -48.91287 5021 ft 106 kts 352°
2026-04-12 19:35 -25.41976 -48.91435 5024 ft 105 kts 351°
2026-04-12 19:36 -25.41254 -48.91585 5023 ft 105 kts 352°
2026-04-12 19:36 -25.40539 -48.91729 5026 ft 104 kts 351°
2026-04-12 19:36 -25.39822 -48.91866 5029 ft 105 kts 352°
2026-04-12 19:36 -25.39102 -48.92006 5029 ft 106 kts 351°
2026-04-12 19:37 -25.38376 -48.92149 5024 ft 106 kts 352°
2026-04-12 19:37 -25.37653 -48.92297 5021 ft 105 kts 351°
2026-04-12 19:37 -25.36934 -48.92444 5007 ft 104 kts 351°
2026-04-12 19:37 -25.36215 -48.92587 5006 ft 104 kts 352°
2026-04-12 19:38 -25.35509 -48.92725 5018 ft 102 kts 352°
2026-04-12 19:38 -25.35498 -48.92727 5018 ft 102 kts 352°
2026-04-12 19:39 -27.67230 -48.54426 54 ft 0 kts 30°